Location: Lecco
(45.8566°N, 9.3977°E)
Time: 04:35:44
(UTC+02:00)

Transit 4A - Pass Details

Date: 16 August 2020
Orbit: 863 x 982 km, 66.8° (Epoch: 23 September)

Event Time Altitude Azimuth Distance (km) Brightness Sun altitude
Rises 13:46:10 0° 313° (NW) 3,602 10.8 57.4°
Reaches altitude 10° 13:51:55 10° 355° (N) 2,694 10.1 57.2°
Maximum altitude 13:52:42 10° 2° (N) 2,682 10.1 57.2°
Drops below altitude 10° 13:53:30 10° 10° (N) 2,703 10.1 57.1°
Sets 13:59:21 0° 51° (NE) 3,676 10.8 56.9°
